QPF
0.00 0.00 0.00 0.00 0.00 0.00 0.00 0.00 0.00 0.00 0.00 0.00 0.00 0.00 0.00 0.00 0.00 0.00 0.00 0.00 0.00 0.00 0.00 0.00 0.00 0.00 0.00 0.00 0.00 0.00 0.00 0.00 0.00 0.00 0.00 0.00 0.00 0.00 0.00 0.00 0.00 0.00 0.00 0.00 0.00 0.00 0.00 0.00 0.00
0.00 0.00 0.00 0.00 0.00 0.00 0.00 0.00 0.00 0.00 0.00 0.00 0.00 0.00 0.00 0.00 0.00 0.00 0.00 0.00 0.00 0.00 0.00 0.00 0.00 0.00 0.00 0.00 0.00 0.00 0.00 0.00 0.00 0.00 0.00 0.00 0.00 0.00 0.00 0.00 0.00 0.00 0.00 0.00 0.00 0.00 0.00 0.00 0.00
0.00 0.00 0.00 0.00 0.00 0.00 0.00 0.00 0.00 0.00 0.00 0.00 0.00 0.00 0.00 0.00 0.00 0.00 0.00 0.00 0.00 0.00 0.00 0.00 0.00 0.00 0.00 0.00 0.00 0.00 0.00 0.00 0.00 0.00 0.00 0.00 0.00 0.00 0.00 0.00 0.00 0.00 0.00 0.00 0.00 0.00 0.00 0.00 0.00
0.00 0.00 0.00 0.00 0.00 0.00 0.00 0.00 0.00 0.00 0.00 0.00 0.00 0.00 0.00 0.00 0.00 0.00 0.00 0.00 0.00 0.00 0.00 0.00 0.00 0.00 0.00 0.00 0.00 0.00 0.00 0.00 0.00 0.00 0.00 0.00 0.00 0.00 0.00 0.00 0.00 0.00 0.00 0.00 0.00 0.00 0.00 0.00 0.00
0.00 0.00 0.00 0.00 0.00 0.00 0.00 0.00 0.00 0.00 0.00 0.00 0.00 0.00 0.00 0.00 0.00 0.00 0.00 0.00 0.00 0.00 0.00 0.00 0.00 0.00 0.00 0.00 0.00 0.00 0.00 0.00 0.00 0.00 0.00 0.00 0.00 0.00 0.00 0.00 0.00 0.00 0.00 0.00 0.00 0.00 0.00 0.00 0.00
0.00 0.00 0.00 0.00 0.00 0.00 0.00 0.00 0.00 0.00 0.00 0.00 0.00 0.00 0.00 0.00 0.00 0.00 0.00 0.00 0.00 0.00 0.00 0.00 0.01 0.01 0.01 0.00 0.00 0.00 0.00 0.00 0.00 0.00 0.00 0.00 0.00 0.00 0.00 0.00 0.00 0.00 0.00 0.00 0.00 0.00 0.00 0.00 0.00
0.00 0.00 0.00 0.00 0.00 0.00 0.00 0.00 0.00 0.00 0.00 0.00 0.00 0.00 0.00 0.00 0.00 0.00 0.00 0.00 0.00 0.00 0.00 0.00 0.00 0.00 0.01 0.00 0.00 0.00 0.00 0.00 0.00 0.00 0.00 0.00 0.00 0.00 0.00 0.00 0.00 0.00 0.00 0.00 0.00 0.00 0.00 0.00 0.00
0.00 0.00 0.00 0.00 0.00 0.00 0.00 0.00 0.00 0.00 0.00 0.00 0.00 0.00 0.00 0.00 0.00 0.00 0.00 0.00 0.00 0.00 0.00 0.00 0.00 0.00 0.00 0.00 0.00 0.00 0.00 0.00 0.00 0.00 0.00 0.00 0.00 0.00 0.00 0.00 0.00 0.00 0.00 0.00 0.00 0.00 0.00 0.00 0.00
0.00 0.00 0.00 0.00 0.00 0.00 0.00 0.00 0.00 0.00 0.00 0.00 0.00 0.00 0.00 0.00 0.00 0.00 0.00 0.00 0.00 0.00 0.00 0.00 0.00 0.00 0.00 0.00 0.00 0.00 0.00 0.00 0.00 0.00 0.00 0.00 0.00 0.00 0.00 0.00 0.00 0.00 0.00 0.00 0.00 0.00 0.01 0.00 0.00
0.00 0.00 0.00 0.00 0.00 0.00 0.00 0.00 0.00 0.00 0.00 0.00 0.00 0.00 0.00 0.03 0.02 0.01 0.00 0.00 0.01 0.02 0.00 0.01 0.03 0.00 0.00 0.00 0.00 0.00 0.00 0.00 0.00 0.00 0.00 0.00 0.00 0.00 0.00 0.00 0.00 0.00 0.00 0.00 0.00 0.00 0.00 0.00 0.00
0.00 0.00 0.00 0.00 0.00 0.00 0.00 0.00 0.00 0.00 0.00 0.00 0.00 0.00 0.01 0.02 0.01 0.00 0.01 0.03 0.04 0.05 0.06 0.06 0.05 0.02 0.00 0.00 0.00 0.00 0.00 0.00 0.00 0.00 0.00 0.00 0.00 0.00 0.00 0.00 0.00 0.00 0.00 0.00 0.00 0.00 0.00 0.00 0.00
0.00 0.00 0.00 0.00 0.00 0.00 0.00 0.00 0.00 0.00 0.00 0.00 0.00 0.01 0.03 0.02 0.01 0.00 0.01 0.01 0.02 0.03 0.02 0.01 0.00 0.00 0.00 0.00 0.00 0.00 0.00 0.00 0.00 0.00 0.00 0.00 0.00 0.00 0.00 0.00 0.00 0.00 0.00 0.00 0.00 0.00 0.00 0.00 0.00
0.00 0.00 0.00 0.00 0.00 0.00 0.00 0.00 0.00 0.00 0.00 0.00 0.00 0.01 0.02 0.01 0.01 0.00 0.01 0.00 0.00 0.00 0.00 0.00 0.00 0.00 0.00 0.00 0.00 0.00 0.00 0.00 0.00 0.00 0.00 0.00 0.00 0.00 0.00 0.00 0.00 0.00 0.00 0.00 0.00 0.00 0.00 0.00 0.00
0.00 0.00 0.00 0.00 0.00 0.00 0.00 0.00 0.00 0.00 0.00 0.00 0.00 0.02 0.01 0.00 0.00 0.00 0.00 0.00 0.00 0.00 0.00 0.00 0.00 0.00 0.00 0.00 0.00 0.00 0.00 0.00 0.00 0.00 0.00 0.00 0.00 0.00 0.00 0.00 0.00 0.00 0.00 0.00 0.00 0.00 0.00 0.00 0.00
0.00 0.00 0.00 0.00 0.00 0.00 0.00 0.00 0.00 0.00 0.00 0.00 0.00 0.02 0.02 0.01 0.01 0.00 0.00 0.00 0.00 0.00 0.00 0.00 0.00 0.00 0.00 0.00 0.00 0.00 0.00 0.00 0.00 0.00 0.00 0.00 0.00 0.00 0.00 0.00 0.00 0.00 0.00 0.00 0.00 0.00 0.00 0.00 0.00
0.00 0.00 0.00 0.00 0.00 0.00 0.00 0.00 0.00 0.00 0.00 0.00 0.00 0.03 0.03 0.02 0.01 0.00 0.00 0.00 0.00 0.00 0.00 0.00 0.00 0.00 0.00 0.00 0.00 0.00 0.00 0.00 0.00 0.00 0.00 0.00 0.00 0.00 0.00 0.00 0.00 0.00 0.00 0.00 0.00 0.00 0.00 0.00 0.00
0.00 0.00 0.00 0.00 0.00 0.00 0.00 0.00 0.00 0.00 0.00 0.00 0.00 0.02 0.02 0.00 0.01 0.00 0.00 0.00 0.00 0.00 0.00 0.00 0.00 0.00 0.00 0.00 0.00 0.00 0.00 0.00 0.00 0.00 0.00 0.00 0.00 0.00 0.00 0.00 0.00 0.00 0.00 0.00 0.00 0.00 0.00 0.00 0.00
0.00 0.00 0.00 0.00 0.00 0.00 0.00 0.00 0.00 0.00 0.00 0.01 0.03 0.01 0.00 0.01 0.00 0.00 0.00 0.00 0.00 0.00 0.00 0.00 0.00 0.00 0.00 0.00 0.00 0.00 0.00 0.00 0.00 0.00 0.00 0.00 0.00 0.00 0.00 0.00 0.00 0.00 0.00 0.00 0.00 0.00 0.00 0.00 0.00
0.00 0.00 0.00 0.00 0.00 0.00 0.00 0.00 0.00 0.00 0.00 0.01 0.00 0.00 0.00 0.01 0.00 0.00 0.00 0.00 0.00 0.00 0.00 0.00 0.00 0.00 0.00 0.00 0.00 0.00 0.00 0.00 0.00 0.00 0.00 0.00 0.00 0.00 0.00 0.00 0.00 0.00 0.00 0.00 0.00 0.00 0.00 0.00 0.00
0.00 0.00 0.00 0.00 0.00 0.00 0.00 0.00 0.00 0.00 0.00 0.00 0.00 0.00 0.01 0.01 0.00 0.00 0.00 0.00 0.00 0.00 0.00 0.00 0.00 0.00 0.00 0.00 0.00 0.00 0.00 0.00 0.00 0.00 0.00 0.00 0.00 0.00 0.00 0.00 0.00 0.00 0.00 0.00 0.00 0.00 0.00 0.00 0.00
0.00 0.00 0.00 0.00 0.00 0.00 0.00 0.00 0.00 0.00 0.00 0.00 0.00 0.01 0.02 0.01 0.00 0.00 0.00 0.00 0.00 0.00 0.00 0.00 0.00 0.00 0.00 0.00 0.00 0.00 0.00 0.00 0.00 0.00 0.00 0.00 0.00 0.00 0.00 0.00 0.00 0.00 0.00 0.00 0.00 0.00 0.00 0.00 0.00
0.00 0.00 0.00 0.00 0.00 0.00 0.00 0.00 0.00 0.00 0.00 0.00 0.01 0.04 0.03 0.01 0.00 0.00 0.00 0.00 0.00 0.00 0.00 0.00 0.00 0.00 0.00 0.00 0.00 0.00 0.00 0.00 0.00 0.00 0.00 0.00 0.00 0.00 0.00 0.00 0.00 0.00 0.00 0.00 0.00 0.00 0.00 0.00 0.00
0.00 0.00 0.00 0.00 0.00 0.00 0.00 0.00 0.00 0.00 0.00 0.00 0.01 0.04 0.03 0.01 0.00 0.00 0.00 0.00 0.00 0.00 0.00 0.00 0.00 0.00 0.00 0.00 0.00 0.00 0.00 0.00 0.00 0.00 0.00 0.00 0.00 0.00 0.00 0.00 0.00 0.00 0.00 0.00 0.00 0.00 0.00 0.00 0.00
0.00 0.00 0.00 0.00 0.00 0.00 0.00 0.00 0.00 0.00 0.00 0.00 0.00 0.02 0.02 0.01 0.00 0.00 0.00 0.00 0.00 0.00 0.00 0.00 0.00 0.00 0.00 0.00 0.00 0.00 0.00 0.00 0.00 0.00 0.00 0.00 0.00 0.00 0.00 0.00 0.00 0.00 0.00 0.00 0.00 0.00 0.00 0.00 0.00
0.00 0.00 0.00 0.00 0.00 0.00 0.00 0.00 0.00 0.00 0.00 0.00 0.00 0.00 0.00 0.00 0.00 0.00 0.00 0.00 0.00 0.00 0.00 0.00 0.00 0.00 0.00 0.00 0.00 0.00 0.00 0.00 0.00 0.00 0.00 0.00 0.00 0.00 0.00 0.00 0.00 0.00 0.00 0.00 0.00 0.00 0.00 0.00 0.00
0.00 0.00 0.00 0.00 0.00 0.00 0.00 0.00 0.00 0.00 0.00 0.00 0.00 0.00 0.00 0.00 0.00 0.00 0.00 0.00 0.00 0.00 0.00 0.00 0.00 0.00 0.00 0.00 0.00 0.00 0.00 0.00 0.00 0.00 0.00 0.00 0.00 0.00 0.00 0.00 0.00 0.00 0.00 0.00 0.00 0.00 0.00 0.00 0.00
0.00 0.00 0.00 0.00 0.00 0.00 0.00 0.00 0.00 0.00 0.00 0.00 0.00 0.00 0.00 0.00 0.00 0.00 0.00 0.00 0.00 0.00 0.00 0.00 0.00 0.00 0.00 0.00 0.00 0.00 0.00 0.00 0.00 0.00 0.00 0.00 0.00 0.00 0.00 0.00 0.00 0.00 0.00 0.00 0.00 0.00 0.00 0.00 0.00
0.00 0.00 0.00 0.00 0.00 0.00 0.00 0.00 0.00 0.00 0.00 0.00 0.00 0.00 0.00 0.00 0.00 0.00 0.00 0.00 0.00 0.00 0.00 0.00 0.00 0.00 0.00 0.00 0.00 0.00 0.00 0.00 0.00 0.00 0.00 0.00 0.00 0.00 0.00 0.00 0.00 0.00 0.00 0.00 0.00 0.00 0.00 0.00 0.00
0.00 0.00 0.00 0.00 0.00 0.00 0.00 0.00 0.00 0.00 0.00 0.00 0.00 0.00 0.00 0.00 0.00 0.00 0.00 0.00 0.00 0.00 0.00 0.00 0.00 0.00 0.00 0.00 0.00 0.00 0.00 0.00 0.00 0.00 0.00 0.00 0.00 0.00 0.00 0.00 0.00 0.00 0.00 0.00 0.00 0.00 0.00 0.00 0.00
0.00 0.00 0.00 0.00 0.00 0.00 0.00 0.00 0.00 0.00 0.00 0.00 0.00 0.00 0.00 0.00 0.00 0.00 0.00 0.00 0.00 0.00 0.00 0.00 0.00 0.00 0.00 0.00 0.00 0.00 0.00 0.00 0.00 0.00 0.00 0.00 0.00 0.00 0.00 0.00 0.00 0.00 0.00 0.00 0.00 0.00 0.00 0.00 0.00
MSLP
1012.04 1012.01 1011.89 1011.30 1010.66 1009.83 1009.97 1010.79 1010.95 1011.12 1011.29 1011.42 1011.53 1011.61 1012.02 1012.31 1013.03 1014.74 1015.28 1015.10 1015.06 1015.40 1015.27 1015.29 1015.50 1015.72 1016.00 1016.12 1015.93 1015.71 1015.51 1015.53 1015.54 1015.64 1015.86 1016.00 1016.08 1016.12 1016.16 1016.16 1016.14 1016.20 1016.28 1016.27 1016.20 1016.13 1016.10 1016.06 1016.04
1011.92 1011.90 1011.36 1010.31 1009.87 1009.52 1009.97 1010.65 1010.77 1010.72 1010.93 1011.80 1012.08 1012.17 1012.46 1013.38 1013.94 1014.76 1015.15 1015.34 1015.29 1015.51 1015.59 1015.36 1015.57 1015.77 1015.88 1016.01 1015.99 1016.07 1016.11 1016.03 1015.84 1015.83 1015.90 1016.04 1016.11 1016.18 1016.16 1016.14 1016.19 1016.26 1016.38 1016.44 1016.37 1016.29 1016.21 1016.18 1016.16
1011.94 1011.55 1010.43 1010.02 1010.02 1010.00 1010.18 1010.47 1010.49 1010.84 1011.69 1012.04 1012.38 1012.97 1013.63 1014.38 1014.52 1014.87 1015.33 1015.40 1015.32 1015.56 1015.71 1015.53 1015.60 1015.79 1015.96 1015.89 1015.85 1015.70 1015.76 1015.91 1015.85 1015.74 1015.85 1015.99 1016.07 1016.15 1016.22 1016.31 1016.35 1016.34 1016.37 1016.43 1016.48 1016.49 1016.42 1016.29 1016.22
1011.53 1010.91 1010.84 1010.08 1010.06 1010.74 1010.87 1010.66 1010.98 1011.57 1012.21 1012.48 1013.05 1013.80 1014.78 1014.96 1015.05 1015.37 1015.33 1015.29 1015.59 1015.70 1015.70 1015.75 1016.23 1016.22 1016.26 1016.42 1016.40 1016.18 1016.08 1015.91 1015.93 1015.96 1015.91 1015.95 1015.94 1016.03 1016.15 1016.18 1016.22 1016.23 1016.33 1016.39 1016.34 1016.28 1016.26 1016.25 1016.23
1011.34 1010.57 1009.83 1009.93 1010.55 1010.95 1011.15 1011.43 1011.78 1011.97 1012.38 1012.88 1013.33 1014.24 1014.74 1015.26 1015.51 1015.55 1015.52 1015.65 1015.85 1016.09 1016.16 1016.17 1016.47 1016.67 1016.84 1016.80 1016.66 1016.56 1016.48 1016.42 1016.32 1016.22 1016.20 1016.09 1015.92 1015.83 1015.91 1015.90 1015.86 1015.95 1016.06 1016.16 1016.19 1016.22 1016.22 1016.22 1016.17
1010.51 1010.62 1009.80 1009.72 1010.47 1010.94 1011.26 1011.61 1011.98 1012.41 1012.98 1013.40 1013.66 1014.26 1014.89 1015.47 1015.51 1015.79 1016.01 1016.08 1016.20 1016.55 1016.78 1016.71 1016.65 1016.70 1016.79 1016.84 1016.94 1016.84 1016.68 1016.49 1016.52 1016.36 1016.36 1016.38 1016.15 1015.94 1015.76 1015.82 1015.72 1015.64 1015.54 1015.53 1015.62 1015.75 1015.89 1015.93 1015.89
1010.10 1010.11 1009.98 1010.10 1010.17 1010.66 1011.15 1011.77 1011.84 1012.39 1013.15 1013.69 1014.29 1014.16 1015.42 1015.73 1015.90 1016.09 1016.51 1016.63 1016.53 1016.55 1016.61 1016.82 1016.83 1016.85 1016.93 1017.04 1016.94 1016.81 1016.77 1016.59 1016.51 1016.57 1016.54 1016.59 1016.62 1016.68 1016.55 1016.18 1016.14 1015.93 1015.78 1015.46 1015.17 1015.32 1015.38 1015.45 1015.52
1010.38 1010.18 1010.22 1010.15 1010.02 1010.24 1011.04 1011.91 1012.43 1012.45 1013.50 1014.26 1014.45 1014.47 1015.65 1016.51 1016.51 1016.72 1016.82 1016.86 1016.81 1016.76 1016.62 1016.70 1017.03 1017.03 1016.97 1016.82 1017.22 1017.27 1017.16 1016.98 1016.92 1016.83 1016.81 1016.82 1016.76 1016.68 1016.55 1016.30 1016.17 1016.19 1015.98 1015.77 1015.55 1014.99 1014.82 1014.98 1015.10
1010.66 1010.08 1009.72 1009.86 1010.03 1010.13 1010.89 1011.47 1012.70 1013.23 1013.59 1014.59 1015.38 1015.80 1016.67 1016.75 1016.64 1016.92 1017.09 1017.22 1017.27 1017.38 1017.30 1017.24 1017.24 1017.14 1017.07 1017.08 1017.32 1017.35 1017.31 1017.32 1017.22 1017.16 1017.04 1016.97 1016.64 1016.57 1016.23 1016.38 1016.23 1016.08 1015.96 1015.62 1015.49 1015.04 1014.64 1014.50 1014.62
1010.18 1009.97 1009.90 1010.06 1009.81 1010.08 1010.74 1011.49 1012.45 1013.24 1014.08 1015.34 1016.21 1016.79 1017.05 1017.15 1017.30 1017.71 1018.04 1018.42 1018.56 1018.52 1018.08 1017.85 1017.73 1017.52 1017.46 1017.35 1017.69 1017.58 1017.68 1017.65 1017.52 1017.30 1017.18 1016.91 1016.89 1016.90 1016.79 1016.37 1016.29 1016.17 1015.91 1015.60 1015.63 1015.23 1014.91 1014.51 1014.03
1010.46 1009.98 1010.31 1010.10 1009.95 1010.17 1010.97 1012.03 1012.96 1013.47 1014.57 1015.74 1016.53 1017.47 1017.84 1018.16 1018.62 1018.87 1019.18 1019.50 1019.64 1019.60 1019.12 1018.80 1018.38 1018.17 1017.87 1017.90 1017.94 1017.94 1018.01 1017.90 1017.77 1017.80 1017.54 1017.41 1017.10 1017.06 1016.81 1016.33 1016.21 1016.06 1015.89 1015.22 1015.27 1014.95 1014.70 1014.67 1014.26
1010.25 1010.21 1010.31 1010.16 1010.39 1010.62 1011.18 1012.45 1013.64 1014.31 1015.99 1016.77 1017.52 1018.25 1018.55 1019.14 1019.71 1019.97 1020.21 1020.36 1020.28 1019.95 1019.77 1019.15 1018.86 1018.62 1018.65 1018.40 1018.39 1018.45 1018.35 1018.29 1018.35 1018.29 1018.09 1017.80 1017.44 1017.38 1017.04 1016.83 1016.57 1016.42 1015.95 1015.54 1015.23 1015.08 1014.98 1014.78 1014.68
1010.17 1010.20 1010.53 1010.72 1010.78 1011.16 1011.95 1012.99 1014.43 1016.33 1017.20 1017.65 1018.40 1019.02 1019.60 1020.02 1020.44 1020.65 1020.78 1020.72 1020.68 1020.47 1020.14 1019.82 1019.44 1019.22 1019.12 1019.08 1019.18 1019.16 1019.22 1019.20 1019.26 1019.03 1018.79 1018.53 1018.38 1018.06 1017.55 1017.15 1016.89 1016.80 1016.16 1015.93 1015.71 1014.96 1014.72 1014.55 1014.30
1010.18 1010.42 1010.84 1011.12 1011.21 1011.79 1012.29 1013.83 1014.50 1017.37 1017.78 1018.40 1018.98 1019.84 1020.50 1020.89 1021.06 1021.00 1021.04 1021.07 1020.98 1020.87 1020.90 1020.55 1020.10 1019.95 1019.73 1019.70 1019.91 1019.92 1019.96 1019.92 1019.66 1019.55 1019.49 1019.26 1018.82 1018.55 1018.10 1017.53 1017.17 1016.95 1016.56 1016.11 1015.75 1015.40 1014.75 1014.38 1014.07
1010.02 1010.41 1010.92 1011.48 1011.65 1012.22 1012.50 1013.98 1016.03 1017.47 1018.07 1019.01 1019.82 1020.64 1021.14 1021.47 1021.54 1021.59 1021.74 1021.70 1021.59 1021.44 1021.47 1021.12 1020.84 1020.85 1020.79 1020.68 1020.49 1020.48 1020.48 1020.32 1020.25 1020.11 1020.01 1019.67 1019.38 1019.03 1018.41 1017.83 1017.55 1017.20 1016.90 1016.45 1015.85 1015.36 1014.90 1014.39 1013.93
1009.66 1010.12 1010.26 1011.53 1011.88 1012.47 1012.90 1014.66 1016.79 1017.81 1018.22 1019.43 1020.45 1021.11 1021.53 1021.95 1022.10 1022.31 1022.34 1022.22 1022.21 1022.03 1021.98 1021.90 1021.68 1021.57 1021.51 1021.53 1021.26 1020.82 1020.92 1020.77 1020.82 1020.53 1020.27 1020.09 1019.84 1019.45 1018.71 1018.30 1018.20 1018.07 1017.32 1016.92 1016.52 1015.97 1015.29 1014.78 1014.52
1009.69 1009.53 1010.34 1011.50 1012.28 1012.39 1013.03 1014.91 1016.99 1018.07 1018.55 1019.61 1020.46 1021.21 1021.78 1022.09 1022.43 1022.57 1022.67 1022.52 1022.51 1022.47 1022.35 1022.22 1022.22 1022.15 1021.98 1021.76 1021.76 1021.77 1021.74 1021.70 1021.21 1020.85 1020.65 1020.41 1020.10 1019.74 1019.26 1018.97 1018.72 1018.41 1017.78 1017.41 1017.15 1016.66 1016.23 1015.38 1014.97
1009.13 1009.70 1010.73 1011.32 1012.52 1013.10 1013.95 1015.68 1017.53 1018.48 1018.78 1019.55 1020.64 1021.24 1021.81 1022.38 1022.82 1023.11 1023.22 1023.11 1023.28 1023.18 1023.05 1022.86 1022.71 1022.53 1022.15 1021.77 1021.49 1021.50 1021.39 1021.43 1021.33 1021.14 1021.07 1020.82 1020.42 1020.14 1019.76 1019.27 1019.06 1018.56 1018.07 1017.75 1017.48 1017.16 1016.65 1016.05 1015.04
1009.43 1009.91 1010.80 1012.43 1013.32 1013.88 1015.05 1016.82 1018.22 1018.85 1019.21 1019.70 1020.47 1021.30 1021.83 1022.59 1023.13 1023.53 1023.61 1023.71 1023.80 1023.67 1023.52 1023.53 1023.37 1023.19 1022.81 1022.18 1021.74 1021.35 1021.40 1021.51 1021.41 1021.44 1021.47 1021.14 1020.77 1020.36 1020.00 1019.53 1019.25 1018.96 1018.54 1018.41 1017.95 1017.43 1016.75 1015.93 1015.49
1009.59 1010.28 1011.56 1013.12 1013.82 1014.22 1016.02 1017.50 1018.62 1019.06 1019.25 1019.72 1020.32 1021.11 1021.56 1022.43 1022.91 1023.50 1023.69 1023.93 1024.07 1024.15 1024.18 1024.09 1023.83 1023.78 1023.47 1023.04 1022.76 1022.53 1022.22 1021.93 1021.99 1021.81 1021.62 1021.38 1020.95 1020.55 1020.13 1020.03 1019.59 1019.38 1018.82 1018.56 1018.28 1017.89 1017.07 1016.35 1016.06
1009.52 1009.85 1011.21 1012.14 1013.97 1014.91 1016.02 1017.41 1018.29 1018.96 1019.34 1019.79 1020.28 1020.85 1021.46 1021.89 1022.54 1023.26 1023.60 1023.98 1024.27 1024.41 1024.53 1024.64 1024.55 1024.38 1024.04 1023.72 1023.03 1022.59 1022.38 1022.08 1021.91 1021.89 1021.65 1021.36 1021.00 1020.66 1020.45 1020.19 1019.91 1019.47 1019.02 1018.60 1018.43 1018.16 1017.88 1017.16 1016.43
1009.03 1009.66 1010.73 1011.85 1012.51 1013.83 1014.96 1015.36 1016.80 1017.74 1018.47 1019.11 1019.76 1020.67 1020.97 1021.73 1022.40 1022.95 1023.43 1023.78 1024.12 1024.54 1024.89 1025.03 1024.94 1024.73 1024.43 1024.18 1023.50 1023.33 1022.89 1022.57 1022.65 1022.30 1021.98 1021.38 1021.17 1020.87 1020.66 1020.33 1020.01 1019.64 1019.09 1018.83 1018.62 1018.49 1018.44 1018.14 1016.91
1009.31 1010.05 1010.78 1011.71 1012.11 1012.77 1014.22 1014.41 1014.96 1016.41 1016.90 1017.42 1018.70 1019.58 1020.39 1021.14 1021.94 1022.64 1023.12 1023.57 1024.22 1024.61 1024.93 1025.08 1025.05 1025.05 1024.88 1024.48 1024.12 1023.66 1023.39 1023.10 1022.83 1022.49 1022.09 1021.60 1021.21 1021.08 1020.84 1020.49 1020.14 1019.75 1019.20 1019.08 1018.81 1018.49 1018.45 1018.33 1018.15
1009.52 1010.18 1010.98 1011.62 1011.84 1012.14 1012.98 1013.61 1013.32 1014.79 1014.73 1016.09 1017.72 1018.70 1019.70 1020.68 1021.71 1022.44 1023.16 1023.83 1024.30 1024.70 1025.02 1025.20 1025.28 1025.28 1024.99 1024.60 1024.36 1024.17 1023.92 1023.59 1023.08 1022.80 1022.26 1021.77 1021.34 1021.02 1020.99 1020.65 1020.27 1019.92 1019.51 1019.09 1018.80 1018.85 1018.55 1018.39 1018.03
1009.35 1009.67 1010.36 1010.93 1011.41 1011.95 1013.18 1013.55 1012.59 1013.98 1014.91 1015.63 1016.48 1017.65 1019.03 1020.24 1021.26 1022.24 1023.02 1023.67 1024.31 1024.77 1025.16 1025.26 1025.52 1025.32 1025.15 1024.86 1024.58 1024.42 1024.20 1023.94 1023.43 1023.13 1022.62 1022.30 1021.71 1021.36 1021.15 1020.91 1020.58 1020.12 1019.90 1019.51 1019.16 1018.98 1018.72 1018.56 1018.28
1009.42 1009.66 1009.98 1010.62 1011.41 1012.08 1013.23 1012.77 1012.82 1014.23 1015.05 1015.49 1016.10 1017.22 1018.51 1019.99 1020.97 1021.92 1022.88 1023.72 1024.37 1025.03 1025.42 1025.56 1025.52 1025.35 1025.30 1025.05 1024.76 1024.54 1024.37 1023.96 1023.63 1023.38 1022.98 1022.52 1022.11 1021.77 1021.58 1021.17 1020.83 1020.50 1020.16 1019.82 1019.51 1019.15 1018.97 1018.88 1018.57
1009.73 1010.16 1011.12 1011.41 1012.64 1012.27 1012.35 1012.74 1012.77 1013.94 1014.60 1015.33 1016.14 1017.21 1018.41 1019.63 1020.71 1021.80 1023.05 1023.83 1024.54 1025.10 1025.50 1025.59 1025.54 1025.44 1025.40 1025.18 1024.92 1024.65 1024.44 1024.19 1023.93 1023.66 1023.41 1023.10 1022.81 1022.18 1021.69 1021.32 1020.98 1020.67 1020.39 1020.11 1019.70 1019.55 1019.37 1019.16 1019.03
1009.61 1010.83 1011.31 1011.40 1011.81 1011.85 1012.04 1012.35 1012.16 1013.13 1013.85 1015.04 1015.87 1016.69 1017.85 1019.24 1020.67 1021.91 1023.01 1023.97 1024.70 1025.19 1025.51 1025.70 1025.76 1025.63 1025.50 1025.28 1025.07 1024.79 1024.64 1024.44 1024.19 1024.05 1023.64 1023.18 1022.68 1022.24 1021.92 1021.63 1021.30 1020.96 1020.67 1020.39 1020.11 1019.86 1019.86 1019.60 1019.33
1010.37 1010.71 1011.60 1011.95 1012.36 1012.01 1011.83 1011.49 1012.10 1012.58 1013.30 1014.03 1015.05 1016.14 1017.56 1019.17 1020.53 1021.82 1023.17 1024.13 1024.71 1025.20 1025.45 1025.63 1025.67 1025.64 1025.49 1025.39 1025.23 1024.97 1024.75 1024.58 1024.28 1024.02 1023.62 1023.29 1022.99 1022.74 1022.40 1022.13 1021.70 1021.34 1021.05 1020.86 1020.58 1020.36 1020.22 1019.93 1019.67
1010.03 1010.49 1011.00 1011.51 1012.62 1012.89 1012.51 1011.74 1012.12 1012.71 1013.30 1014.12 1015.05 1016.35 1017.76 1019.27 1020.51 1021.84 1023.10 1023.94 1024.58 1025.01 1025.38 1025.59 1025.71 1025.60 1025.60 1025.52 1025.32 1025.14 1024.87 1024.63 1024.31 1024.08 1023.80 1023.51 1023.23 1022.99 1022.72 1022.36 1021.98 1021.67 1021.43 1021.21 1020.99 1020.74 1020.55 1020.21 1019.84
Thickness
5811 5810 5812 5809 5794 5793 5772 5769 5783 5777 5780 5793 5795 5786 5775 5781 5772 5753 5773 5776 5776 5772 5772 5773 5772 5771 5769 5768 5771 5774 5776 5776 5776 5774 5772 5770 5769 5767 5766 5767 5767 5766 5765 5766 5767 5768 5768 5768 5768
5810 5810 5810 5806 5782 5768 5770 5778 5774 5788 5795 5791 5790 5787 5777 5764 5775 5767 5765 5769 5767 5766 5767 5769 5768 5768 5767 5766 5768 5767 5767 5768 5770 5770 5769 5767 5766 5765 5765 5764 5764 5763 5762 5761 5762 5764 5765 5765 5765
5809 5810 5802 5792 5773 5761 5766 5779 5786 5791 5791 5788 5783 5785 5774 5761 5771 5768 5768 5766 5762 5760 5759 5762 5763 5762 5760 5762 5763 5766 5765 5764 5765 5766 5764 5763 5762 5761 5761 5760 5759 5759 5758 5757 5757 5757 5758 5760 5761
5805 5805 5796 5780 5766 5767 5768 5782 5788 5780 5783 5788 5781 5766 5767 5771 5768 5768 5768 5763 5758 5757 5757 5759 5755 5757 5758 5755 5756 5759 5759 5760 5760 5759 5759 5759 5759 5758 5756 5756 5755 5753 5751 5750 5751 5752 5753 5753 5755
5803 5796 5778 5768 5760 5768 5776 5780 5782 5775 5777 5777 5778 5758 5760 5767 5768 5766 5765 5762 5758 5758 5759 5758 5755 5754 5751 5750 5751 5752 5752 5752 5753 5754 5753 5754 5755 5756 5754 5753 5753 5752 5750 5748 5746 5745 5746 5746 5747
5792 5788 5767 5758 5758 5767 5773 5779 5778 5772 5770 5769 5768 5762 5760 5766 5764 5763 5762 5760 5757 5755 5752 5751 5751 5750 5749 5747 5745 5745 5745 5746 5745 5747 5746 5744 5746 5748 5749 5748 5748 5747 5747 5748 5747 5746 5744 5743 5742
5786 5779 5763 5756 5759 5761 5768 5779 5775 5770 5766 5762 5765 5760 5756 5758 5760 5762 5757 5755 5753 5752 5750 5747 5747 5745 5744 5742 5741 5741 5741 5743 5743 5742 5741 5739 5738 5736 5737 5741 5740 5741 5741 5741 5742 5741 5741 5739 5738
5784 5776 5757 5756 5756 5759 5774 5770 5771 5772 5761 5768 5767 5756 5745 5747 5755 5753 5751 5749 5748 5747 5746 5745 5742 5739 5739 5739 5735 5733 5732 5734 5733 5733 5732 5731 5731 5731 5731 5732 5732 5731 5732 5732 5733 5735 5735 5734 5732
5780 5764 5757 5758 5754 5765 5777 5770 5767 5771 5765 5759 5755 5749 5743 5747 5749 5745 5743 5741 5740 5739 5739 5736 5735 5735 5734 5732 5730 5728 5728 5727 5728 5727 5727 5725 5725 5725 5725 5724 5725 5724 5723 5725 5724 5727 5727 5727 5726
5773 5760 5757 5765 5773 5770 5774 5771 5766 5762 5755 5746 5744 5743 5744 5743 5740 5732 5728 5725 5725 5725 5729 5729 5729 5729 5727 5726 5722 5723 5719 5717 5717 5718 5717 5718 5717 5715 5714 5716 5715 5714 5714 5714 5712 5714 5715 5717 5719
5762 5757 5757 5764 5775 5778 5770 5763 5765 5760 5746 5744 5737 5730 5733 5730 5724 5721 5719 5717 5714 5714 5717 5719 5720 5720 5720 5718 5716 5714 5711 5710 5710 5708 5708 5707 5709 5707 5706 5708 5706 5705 5705 5707 5704 5706 5707 5705 5708
5758 5763 5763 5768 5771 5770 5768 5765 5752 5752 5738 5741 5735 5730 5727 5720 5714 5713 5711 5708 5708 5709 5709 5713 5713 5714 5712 5711 5709 5706 5705 5703 5700 5699 5699 5699 5699 5698 5699 5698 5697 5694 5694 5695 5696 5697 5697 5694 5695
5755 5761 5760 5763 5766 5766 5766 5754 5742 5727 5731 5734 5726 5721 5716 5713 5709 5708 5707 5706 5704 5703 5705 5706 5706 5706 5705 5703 5700 5698 5695 5692 5690 5689 5688 5687 5685 5687 5688 5688 5687 5685 5687 5687 5685 5689 5690 5689 5689
5759 5755 5754 5757 5759 5758 5754 5744 5747 5720 5728 5724 5717 5709 5704 5702 5701 5702 5701 5699 5699 5698 5696 5697 5698 5696 5696 5694 5690 5688 5684 5682 5680 5678 5676 5675 5675 5676 5677 5679 5679 5680 5679 5678 5678 5679 5682 5682 5682
5759 5747 5751 5748 5752 5747 5758 5738 5719 5721 5724 5714 5708 5701 5698 5695 5696 5694 5692 5691 5691 5691 5688 5689 5689 5687 5684 5682 5680 5676 5673 5671 5669 5667 5665 5665 5664 5664 5667 5669 5668 5669 5669 5670 5670 5670 5672 5674 5675
5750 5749 5742 5743 5747 5748 5749 5725 5715 5717 5719 5706 5700 5694 5692 5689 5688 5685 5684 5683 5681 5681 5679 5678 5677 5675 5672 5670 5669 5668 5664 5661 5658 5656 5655 5654 5652 5653 5656 5656 5655 5654 5657 5657 5657 5659 5661 5663 5662
5739 5737 5733 5732 5741 5744 5743 5722 5714 5714 5713 5701 5696 5690 5687 5685 5681 5680 5678 5678 5676 5674 5672 5670 5667 5666 5665 5663 5660 5655 5651 5647 5646 5645 5643 5643 5642 5642 5643 5642 5642 5642 5643 5644 5643 5644 5645 5650 5650
5730 5731 5728 5731 5732 5734 5728 5715 5705 5704 5706 5699 5690 5687 5683 5679 5675 5672 5670 5668 5665 5663 5661 5661 5659 5658 5656 5655 5653 5649 5646 5641 5637 5635 5631 5630 5630 5629 5629 5629 5629 5629 5631 5631 5630 5630 5631 5634 5641
5736 5733 5727 5718 5721 5722 5715 5698 5692 5696 5698 5693 5688 5681 5677 5671 5667 5663 5661 5658 5655 5652 5650 5647 5645 5643 5642 5644 5645 5645 5639 5633 5628 5624 5621 5619 5618 5619 5618 5618 5616 5615 5616 5615 5617 5619 5622 5625 5626
5732 5724 5711 5708 5715 5717 5700 5685 5685 5689 5692 5691 5685 5678 5675 5667 5663 5657 5655 5650 5645 5641 5638 5636 5635 5632 5631 5631 5629 5627 5624 5621 5615 5612 5611 5609 5609 5608 5607 5605 5605 5603 5605 5605 5605 5606 5610 5612 5611
5728 5729 5713 5717 5704 5704 5694 5679 5679 5682 5685 5684 5682 5677 5672 5667 5660 5653 5647 5641 5637 5633 5629 5625 5622 5620 5618 5617 5617 5617 5614 5612 5608 5604 5602 5599 5598 5597 5595 5594 5593 5593 5595 5596 5596 5595 5594 5597 5599
5727 5735 5726 5712 5715 5701 5703 5697 5685 5685 5684 5682 5677 5669 5668 5662 5655 5648 5641 5635 5631 5625 5619 5615 5611 5608 5606 5603 5604 5600 5599 5597 5592 5590 5588 5589 5587 5586 5584 5582 5582 5582 5584 5584 5583 5582 5580 5579 5587
5725 5729 5722 5713 5711 5708 5691 5698 5699 5691 5687 5688 5678 5672 5667 5660 5651 5644 5637 5631 5623 5615 5609 5604 5601 5596 5592 5591 5589 5588 5585 5583 5580 5579 5578 5577 5576 5574 5572 5571 5571 5571 5572 5572 5573 5574 5572 5571 5569
5726 5719 5711 5706 5706 5696 5696 5696 5710 5691 5703 5697 5682 5673 5665 5657 5647 5640 5630 5621 5613 5606 5601 5596 5591 5586 5583 5581 5578 5575 5571 5568 5567 5565 5566 5566 5565 5563 5560 5561 5561 5561 5562 5564 5566 5564 5565 5564 5564
5722 5717 5696 5689 5687 5685 5681 5680 5709 5697 5693 5691 5684 5676 5664 5654 5644 5633 5623 5614 5605 5599 5592 5586 5579 5575 5572 5568 5565 5561 5558 5556 5556 5554 5554 5552 5554 5553 5552 5551 5552 5554 5555 5556 5557 5556 5557 5555 5555
5711 5715 5701 5670 5675 5683 5674 5682 5700 5687 5683 5686 5684 5676 5663 5648 5640 5628 5617 5607 5598 5589 5580 5573 5568 5564 5559 5555 5552 5549 5546 5546 5545 5544 5544 5544 5544 5544 5543 5544 5546 5547 5548 5549 5549 5550 5549 5546 5545
5707 5705 5698 5677 5662 5672 5680 5684 5696 5683 5679 5677 5672 5666 5655 5644 5634 5623 5609 5599 5590 5581 5571 5565 5559 5554 5548 5544 5540 5538 5536 5535 5535 5534 5533 5533 5534 5537 5539 5540 5541 5542 5542 5542 5542 5541 5539 5536 5533
5714 5700 5686 5687 5663 5661 5675 5670 5687 5684 5682 5670 5666 5661 5653 5641 5627 5615 5604 5592 5581 5571 5563 5555 5548 5542 5537 5533 5530 5527 5525 5525 5525 5524 5526 5528 5530 5532 5533 5535 5536 5536 5536 5535 5534 5533 5528 5525 5522
5696 5693 5679 5681 5672 5667 5663 5677 5690 5687 5684 5677 5670 5662 5650 5635 5623 5610 5596 5584 5574 5564 5556 5547 5540 5533 5529 5523 5519 5516 5515 5515 5517 5519 5521 5523 5524 5525 5527 5528 5529 5530 5529 5526 5525 5522 5518 5515 5511
5700 5695 5693 5681 5662 5655 5656 5669 5685 5681 5679 5674 5666 5655 5644 5630 5618 5605 5591 5579 5569 5559 5549 5541 5532 5526 5520 5515 5510 5506 5505 5507 5511 5513 5515 5517 5519 5520 5521 5522 5523 5522 5521 5519 5516 5512 5508 5505 5500